This is the latest recevied weather packets stored in our database for station/object IU3OVK-13. If no packets are shown the sender has not sent any weather packets the latest 10 day(s).
| Time | Temp. | Humidity | Pressure | Rain* | Wind** | Luminosity | Snow |
|---|---|---|---|---|---|---|---|
| 1787904093 | 36.67° C | 99% | 1008.6 hPa | - | - | - | - |
| 1787903472 | 34.44° C | 99% | 1009.6 hPa | - | - | - | - |
| 1787902891 | 33.33° C | 99% | 1009.2 hPa | - | - | - | - |
| 1787902852 | 33.33° C | 99% | 1009.2 hPa | - | - | - | - |
| 1787902232 | 33.33° C | 99% | 1009.2 hPa | - | - | - | - |
| 1787901610 | 25.56° C | 99% | 1011.4 hPa | - | - | - | - |
| 1787900990 | 25.56° C | 99% | 1011.4 hPa | - | - | - | - |
| 1787900367 | 20.56° C | 99% | 1009.2 hPa | - | - | - | - |
| 1787899747 | 21.67° C | 99% | 1008.4 hPa | - | - | - | - |
| 1787899127 | 21.11° C | 99% | 1008.3 hPa | - | - | - | - |
| 1787897887 | 20.56° C | 99% | 1008.8 hPa | - | - | - | - |
| 1787897266 | 20.56° C | 99% | 1009 hPa | - | - | - | - |
| 1787896026 | 20.56° C | 99% | 1009.7 hPa | - | - | - | - |
| 1787895406 | 20° C | 99% | 1010.5 hPa | - | - | - | - |
| 1787894786 | 20° C | 99% | 1009.6 hPa | - | - | - | - |
| 1787894166 | 20.56° C | 99% | 1009.3 hPa | - | - | - | - |
| 1787893545 | 20.56° C | 99% | 1009.1 hPa | - | - | - | - |
| 1787892925 | 20.56° C | 99% | 1008.9 hPa | - | - | - | - |
| 1787892305 | 20.56° C | 99% | 1008.7 hPa | - | - | - | - |
| 1787891685 | 20° C | 99% | 1008.9 hPa | - | - | - | - |
| 1787891064 | 20.56° C | 99% | 1008.2 hPa | - | - | - | - |
| 1787890444 | 20.56° C | 99% | 1008.4 hPa | - | - | - | - |
| 1787889824 | 20.56° C | 99% | 1008.1 hPa | - | - | - | - |
| 1787889204 | 20.56° C | 99% | 1008.4 hPa | - | - | - | - |
| 1787888008 | 20.56° C | 99% | 1008.3 hPa | - | - | - | - |
* Rain since midnight (hover to see other rain measurements)
** Current wind speed in m/s (hover to see current wind gust speed)